Probability
0 0 0 0 0 0 0 0 0 0 0 0 0 0 0 0 0 0 0 0 0 0 0 0 0 0 0 0 0 0 0 0 0 0 0 0 0 0
0 0 0 0 0 0 0 0 0 0 0 0 0 0 0 0 0 0 0 0 0 0 0 0 0 0 0 0 0 0 0 0 0 0 0 0 0 0
0 0 0 0 0 0 0 0 0 0 0 0 0 0 0 0 0 0 0 0 0 0 0 0 0 0 0 0 0 0 0 0 0 0 0 0 0 0
0 0 0 0 0 0 0 0 0 0 0 0 0 0 0 0 0 0 0 0 0 0 0 0 0 0 0 0 0 0 0 0 0 0 0 0 0 0
0 0 0 0 0 0 0 0 0 0 0 0 0 0 0 0 0 0 0 0 0 0 0 0 0 0 0 0 0 0 0 0 0 0 0 0 0 0
0 0 0 0 0 0 0 0 0 0 0 0 0 0 0 0 0 0 0 0 0 0 0 0 0 0 0 0 0 0 0 0 0 0 0 0 0 0
0 0 0 0 0 0 0 0 0 0 0 0 0 0 0 0 0 0 0 0 0 0 0 0 0 0 0 0 0 0 0 0 0 0 0 0 0 0
0 0 0 0 0 0 0 0 0 0 0 0 0 0 0 0 0 0 0 0 0 0 0 0 0 0 0 0 0 0 0 0 0 0 0 0 0 0
0 0 0 0 0 0 0 0 0 0 0 0 0 0 0 0 0 0 0 0 0 0 0 0 0 0 0 0 0 0 0 0 0 0 0 0 0 0
0 0 0 0 0 0 0 0 0 0 0 0 0 0 0 0 0 0 0 0 0 0 0 0 0 0 0 0 0 0 0 0 0 0 0 0 0 0
0 0 0 0 0 0 0 0 0 0 0 0 0 0 0 0 0 0 0 0 0 0 0 0 0 0 0 0 0 0 0 0 0 0 0 0 0 0
0 0 0 0 0 0 0 0 0 0 0 0 0 0 0 0 0 0 0 0 0 0 0 0 0 0 0 0 0 0 0 0 0 0 0 0 0 0
0 0 0 0 0 0 0 0 0 0 0 0 0 0 0 0 0 0 0 0 0 0 0 0 0 0 0 0 0 0 0 0 0 0 0 0 0 0
0 0 0 0 0 0 0 0 0 0 0 0 0 0 0 0 0 0 0 0 0 0 0 0 0 0 0 0 0 0 0 0 0 0 0 0 0 0
0 0 0 0 0 0 0 0 0 0 0 0 0 0 0 0 0 0 0 0 0 0 0 0 0 0 0 0 0 0 0 0 0 0 0 0 0 0
0 0 0 0 0 0 0 0 0 0 0 0 0 0 0 0 0 0 0 0 0 0 0 0 0 0 0 0 0 0 0 0 0 0 0 0 0 0
0 0 0 0 0 0 0 0 0 0 0 0 0 0 0 0 0 0 0 0 0 0 0 0 0 0 0 0 0 0 0 0 0 0 0 0 0 0
0 0 0 0 0 0 0 0 0 0 0 0 0 0 0 0 0 0 0 0 0 0 0 0 0 0 0 0 0 0 0 0 0 0 0 0 0 0
0 0 0 0 0 0 0 0 0 0 0 0 0 0 0 0 0 0 0 0 0 0 0 0 0 0 0 0 0 0 0 0 0 0 0 0 0 0
0 0 0 0 0 0 0 0 0 0 0 0 0 0 0 0 0 0 0 0 0 0 0 0 0 0 0 0 0 0 0 0 0 0 0 0 0 0
0 0 0 0 0 0 0 0 0 0 0 0 0 0 0 0 0 0 0 0 0 0 0 0 0 0 0 0 0 0 0 0 0 0 0 0 0 0
0 0 0 0 0 0 0 0 0 0 0 0 0 0 0 0 0 0 0 0 0 0 0 0 0 0 0 0 0 0 0 0 0 0 0 0 0 0
0 0 0 0 0 0 0 0 0 0 0 0 0 0 0 0 0 0 0 0 0 0 0 0 0 0 0 0 0 0 0 0 0 0 0 0 0 0
Wind_Speed
3 4 3 3 3 3 3 4 4 4 4 3 2 2 2 2 2 2 3 3 4 5 5 6 6 6 7 7 8 8 8 8 8 8 7 8 9 9
2 3 3 3 2 2 3 4 4 4 4 2 2 2 2 2 2 3 3 4 4 4 5 5 5 5 6 7 7 8 8 9 9 8 8 8 9 9
3 3 4 4 3 2 3 3 3 3 5 4 2 2 3 3 2 2 3 3 3 3 4 4 5 5 5 6 6 7 8 8 8 9 9 9 9 10
3 3 4 3 3 2 3 3 3 3 4 5 3 2 3 3 3 3 3 3 3 4 5 5 5 5 6 6 6 7 7 8 8 9 9 9 10 10
3 3 3 2 2 2 2 2 2 3 3 3 3 2 2 2 2 2 3 3 3 3 5 5 5 5 6 6 7 7 7 7 8 8 8 9 10 10
2 2 3 2 2 2 2 2 2 3 2 3 3 2 2 2 2 2 2 2 3 2 3 4 4 5 6 6 7 7 7 7 7 7 7 8 9 9
1 1 1 1 2 2 1 2 2 2 2 3 3 2 2 2 2 2 3 3 3 2 3 3 3 3 4 5 6 6 7 7 7 7 7 8 8 9
1 1 1 1 1 1 2 2 3 3 3 3 3 4 4 3 2 2 2 2 3 1 2 3 3 3 3 3 5 7 8 8 8 7 8 8 8 8
1 1 1 1 1 1 2 2 2 3 4 4 5 4 4 3 3 3 3 4 4 2 2 4 3 4 3 4 6 7 8 8 8 8 8 8 8 9
1 1 1 1 1 1 1 2 2 2 3 4 4 5 4 3 4 4 4 3 3 2 2 3 3 4 4 4 6 7 8 8 8 8 8 8 8 9
1 1 1 1 1 1 1 2 2 2 2 3 4 4 4 4 3 2 2 2 3 2 1 2 2 4 4 4 4 6 8 9 9 9 8 8 8 8
1 1 1 2 1 2 2 2 2 3 2 3 3 3 3 2 2 2 2 3 2 2 1 1 2 2 4 2 3 4 5 7 9 9 8 8 8 6
1 1 1 2 2 2 2 2 3 3 2 2 2 2 1 1 1 2 2 2 3 3 1 2 2 2 3 4 3 4 4 4 4 5 7 8 8 6
2 1 1 3 3 2 2 2 2 2 1 1 2 1 1 1 2 2 2 2 3 4 4 3 3 3 4 5 5 4 4 4 4 5 4 6 6 7
1 2 2 2 2 2 2 3 2 1 1 1 1 2 2 2 2 2 2 2 2 3 3 3 3 4 4 5 5 5 5 4 4 4 4 4 4 4
1 1 1 1 0 0 1 1 1 1 1 1 1 2 2 1 1 1 2 2 2 2 1 2 3 4 4 5 5 5 5 4 3 4 4 4 4 4
1 0 1 1 1 1 1 1 1 1 1 1 1 2 2 2 2 1 2 2 2 3 3 2 2 3 4 4 5 5 5 5 4 4 4 5 4 4
1 1 1 1 1 1 1 1 1 1 1 1 2 2 2 2 2 2 2 2 3 3 3 3 3 3 2 2 4 5 5 5 4 4 4 4 5 5
2 2 2 2 2 2 2 2 2 2 1 2 2 2 2 2 2 2 2 2 3 3 3 3 3 3 4 5 3 3 4 4 4 4 4 4 6 6
2 2 2 2 2 2 2 2 2 2 2 2 2 2 2 2 2 3 2 3 3 3 3 3 3 3 4 5 5 4 5 5 4 5 5 5 5 7
3 3 3 3 3 3 2 2 2 2 2 2 2 2 2 2 3 3 3 3 3 3 4 4 4 4 4 3 4 4 3 5 6 5 5 5 6 5
3 3 3 3 3 3 3 3 3 3 3 3 2 2 2 2 3 4 3 4 3 4 4 4 3 3 3 4 5 6 6 5 6 8 8 8 5 5
3 3 3 3 3 3 3 3 4 3 3 3 2 2 2 3 3 3 3 4 3 3 4 4 3 3 3 4 5 5 7 7 5 5 5 7 10 12
Wind_Direction
238 238 239 245 241 229 228 230 233 245 251 242 231 219 238 250 273 269 277 297 294 295 294 293 295 297 300 293 287 288 286 284 281 280 278 280 281 281
236 240 239 242 242 240 237 239 241 245 251 247 250 255 241 247 262 270 279 288 282 295 296 296 298 299 305 305 293 289 286 285 283 281 280 282 285 286
234 234 240 242 237 235 237 238 238 239 247 259 256 267 254 256 270 275 279 279 278 288 287 289 293 297 300 304 302 296 292 289 287 284 282 281 282 283
234 236 242 244 245 245 242 240 242 237 241 255 256 261 255 255 265 270 278 275 280 292 287 286 288 294 299 301 303 303 298 292 286 284 282 281 282 284
237 237 241 237 245 254 259 258 258 254 247 244 251 258 268 263 263 268 276 278 282 285 283 281 287 292 296 298 301 303 303 298 293 287 284 281 281 282
247 250 247 233 238 250 252 264 271 261 253 247 244 245 261 265 256 266 277 276 283 287 276 280 289 288 289 294 297 298 297 294 292 293 292 290 288 286
245 263 264 252 256 250 251 259 259 254 247 250 253 252 253 252 247 252 262 278 280 274 290 294 293 289 287 286 288 294 294 291 291 293 294 294 292 290
237 285 286 259 275 268 260 262 252 247 249 247 253 254 262 258 257 248 255 272 273 281 297 293 290 283 287 288 297 297 296 293 290 290 293 294 295 295
235 251 283 323 293 275 266 269 270 269 261 254 251 255 265 262 258 251 247 255 267 289 286 281 285 280 291 288 294 297 296 295 292 292 293 295 297 298
241 237 243 257 279 302 290 281 282 283 283 272 263 267 270 273 256 255 255 263 276 266 261 272 288 289 300 289 289 291 294 299 299 296 296 296 297 301
268 263 253 253 281 267 250 262 278 287 299 302 294 288 280 271 258 244 236 242 264 258 233 260 286 301 296 288 294 298 299 300 300 298 298 297 298 299
274 272 266 270 283 259 242 247 270 290 300 299 296 294 291 281 253 236 233 240 257 262 198 247 269 301 294 286 304 308 300 295 297 294 292 296 300 297
264 264 272 290 282 281 261 259 274 287 281 277 277 281 287 284 284 292 278 250 251 256 234 245 262 273 270 287 295 300 304 309 305 294 290 293 296 295
264 270 275 293 291 288 276 291 287 275 262 271 279 280 282 289 302 300 296 286 273 269 265 254 255 263 272 280 284 295 303 305 302 299 298 296 295 297
282 304 305 292 282 277 285 294 282 270 261 257 274 290 295 294 298 300 302 293 288 278 271 266 262 264 262 268 279 290 299 300 296 299 306 306 304 302
287 307 307 313 317 19 347 330 319 311 283 278 292 299 302 297 296 310 307 314 303 299 300 288 277 270 271 272 275 281 285 287 297 299 302 303 303 296
266 276 294 287 299 319 335 341 338 338 316 302 289 290 298 299 298 308 301 297 284 297 309 316 301 281 275 279 272 272 280 284 290 296 294 294 295 292
205 223 243 261 266 277 286 294 299 297 293 283 279 279 285 293 293 293 287 280 284 291 299 306 306 294 269 265 259 271 278 287 296 296 289 289 294 297
223 227 239 244 248 254 260 264 268 275 272 264 268 275 283 286 287 281 277 278 283 288 294 294 289 284 287 295 300 264 277 290 296 295 289 286 290 298
229 232 236 243 247 246 246 251 258 261 253 254 258 265 271 276 280 281 274 272 279 284 285 283 282 282 281 292 296 298 284 279 282 286 292 294 291 295
232 234 238 242 246 247 246 244 244 245 247 248 252 258 263 267 271 277 278 274 271 270 275 283 293 292 285 283 278 280 287 286 288 286 290 293 297 297
236 237 239 240 241 244 243 239 241 241 240 240 247 254 256 256 262 268 273 273 273 275 280 287 294 285 272 265 276 288 296 303 301 298 292 282 282 287
237 239 240 240 240 241 239 235 236 242 243 245 249 255 257 258 260 262 267 270 270 274 283 288 286 282 277 274 279 287 295 302 302 301 294 292 288 284